This is the latest recevied weather packets stored in our database for station/object F1DKL-13. If no packets are shown the sender has not sent any weather packets the latest 10 day(s).
| Time | Temp. | Humidity | Pressure | Rain* | Wind** | Luminosity | Snow |
|---|---|---|---|---|---|---|---|
| 1777370405 | 25° C | 2% | 1021.5 hPa | 0 mm | - | - | - |
| 1777370105 | 24.44° C | 2% | 1022.6 hPa | 0 mm | - | - | - |
| 1777369805 | 24.44° C | 2% | 1022.6 hPa | 0 mm | - | - | - |
| 1777369505 | 23.89° C | 2% | 1022.6 hPa | 0 mm | - | - | - |
| 1777369205 | 23.89° C | 2% | 1022.6 hPa | 0 mm | - | - | - |
| 1777368905 | 24.44° C | 2% | 1022.6 hPa | 0 mm | - | - | - |
| 1777368610 | 24.44° C | 2% | 1022.6 hPa | 0 mm | - | - | - |
| 1777368305 | 25° C | 13% | 1022.6 hPa | 0 mm | - | - | - |
| 1777368007 | 23.89° C | 13% | 1022.6 hPa | 0 mm | - | - | - |
| 1777367705 | 23.33° C | 11% | 1022.6 hPa | 0 mm | - | - | - |
| 1777367405 | 23.33° C | 8% | 1022.6 hPa | 0 mm | - | - | - |
| 1777366805 | 23.89° C | 11% | 1022.6 hPa | 0 mm | - | - | - |
| 1777366505 | 23.33° C | 6% | 1022.6 hPa | 0 mm | - | - | - |
| 1777365905 | 23.89° C | 11% | 1022.6 hPa | 0 mm | - | - | - |
| 1777365608 | 23.89° C | 21% | 1023.6 hPa | 0 mm | - | - | - |
| 1777365305 | 23.89° C | 22% | 1023.6 hPa | 0 mm | - | - | - |
| 1777365005 | 23.33° C | 23% | 1023.6 hPa | 0 mm | - | - | - |
| 1777364705 | 22.22° C | 23% | 1021.5 hPa | 0 mm | - | - | - |
| 1777364405 | 22.22° C | 23% | 1021.5 hPa | 0 mm | - | - | - |
| 1777364105 | 21.67° C | 25% | 1021.5 hPa | 0 mm | - | - | - |
| 1777363805 | 21.67° C | 24% | 1021.5 hPa | 0 mm | - | - | - |
| 1777363505 | 21.11° C | 29% | 1021.5 hPa | 0 mm | - | - | - |
| 1777363226 | 20.56° C | 29% | 1021.5 hPa | 0 mm | - | - | - |
| 1777362905 | 20.56° C | 29% | 1022.6 hPa | 0 mm | - | - | - |
| 1777362605 | 20° C | 30% | 1022.6 hPa | 0 mm | - | - | - |
* Rain latest hour (hover to see other rain measurements)
** Current wind speed in m/s (hover to see current wind gust speed)